Back to catalog

POSIDONIA

AliveScienceSSO
NORAD 69922·PAYLOAD·🇺🇸 United States

Launched Jul 7, 2026 from Vandenberg Space Force Base

Loading…

Next Passes (next 24 hours)

TLE

FreshSource: Space-Track

Epoch: Sep 14, 2026, 13:18 UTC

1 69922U 26156BF  26257.55438038  .00000298  00000-0  34955-4 0  9995
2 69922  97.7439 156.8581 0006082 291.0140  69.0428 14.91966383 10321

Track POSIDONIA in real time with AllMySat

Download on the App Store